When you browse on this site, cookies collect data to enhance your experience and personalize the content and advertising you see.
Visit our Privacy Policy to learn more. By continuing to use the site, you agree to this use of cookies and data.
  • In Hungary
  • List of Countries
  • For 7 days
  • Water Temperature
  • Satellite Maps
  • Weather Map
  • News
  • Weather Widgets
  • user-avatar
    Login

    Hourly Weather Fomishiha

    Today, 22 May, Wednesday

    Time Temperature Precipitation Wind Pressure Humidity
    00:00 +16°C° 0 mm 2 mps 735 mmHg 72%
    01:00 +15°C° 0 mm 2 mps 735 mmHg 75%
    02:00 +14°C° 0 mm 2 mps 735 mmHg 78%
    03:00 +14°C° 0 mm 2 mps 734 mmHg 79%
    04:00 +15°C° 0 mm 2 mps 734 mmHg 80%
    05:00 +15°C° 0 mm 2 mps 734 mmHg 82%
    06:00 +17°C° 0 mm 2 mps 734 mmHg 76%
    07:00 +18°C° 0 mm 2 mps 734 mmHg 71%
    08:00 +20°C° 0 mm 2 mps 734 mmHg 66%
    09:00 +21°C° 0 mm 2 mps 734 mmHg 61%
    10:00 +23°C° 0 mm 2 mps 733 mmHg 57%
    11:00 +24°C° 0 mm 2 mps 733 mmHg 52%
    12:00 +24°C° 0.3 mm 2 mps 733 mmHg 52%
    13:00 +25°C° 0.3 mm 2 mps 732 mmHg 52%
    14:00 +25°C° 0.3 mm 2 mps 732 mmHg 51%
    15:00 +24°C° 0.6 mm 2 mps 732 mmHg 60%
    16:00 +23°C° 0.6 mm 2 mps 731 mmHg 68%
    17:00 +21°C° 0.6 mm 2 mps 731 mmHg 76%
    18:00 +20°C° 0.1 mm 1 mps 731 mmHg 81%
    19:00 +19°C° 0.1 mm 1 mps 731 mmHg 85%
    20:00 +16°C° 0.1 mm 1 mps 730 mmHg 90%
    21:00 +14°C° 0 mm 0 mps 730 mmHg 91%
    22:00 +14°C° 0 mm 0 mps 730 mmHg 92%
    23:00 +13°C° 0 mm 0 mps 730 mmHg 92%

    Tomorrow, 23 May, Thursday

    Time Temperature Precipitation Wind Pressure Humidity
    00:00 +13°C° 0 mm 0 mps 730 mmHg 93%
    01:00 +13°C° 0 mm 0 mps 730 mmHg 93%
    02:00 +13°C° 0 mm 1 mps 730 mmHg 94%
    03:00 +14°C° 0 mm 1 mps 730 mmHg 94%
    04:00 +14°C° 0 mm 1 mps 730 mmHg 93%
    05:00 +13°C° 0 mm 0 mps 730 mmHg 93%
    06:00 +16°C° 0 mm 1 mps 730 mmHg 89%
    07:00 +18°C° 0 mm 1 mps 730 mmHg 84%
    08:00 +20°C° 0 mm 1 mps 730 mmHg 80%
    09:00 +20°C° 0.5 mm 1 mps 730 mmHg 77%
    10:00 +20°C° 0.5 mm 2 mps 730 mmHg 75%
    11:00 +21°C° 0.5 mm 2 mps 730 mmHg 72%
    12:00 +21°C° 0.6 mm 2 mps 730 mmHg 71%
    13:00 +21°C° 0.6 mm 2 mps 731 mmHg 70%
    14:00 +21°C° 0.6 mm 2 mps 731 mmHg 69%
    15:00 +20°C° 0.4 mm 3 mps 731 mmHg 70%
    16:00 +20°C° 0.4 mm 3 mps 731 mmHg 71%
    17:00 +19°C° 0.4 mm 3 mps 731 mmHg 73%
    18:00 +17°C° 0 mm 3 mps 731 mmHg 75%
    19:00 +14°C° 0 mm 3 mps 731 mmHg 76%
    20:00 +12°C° 0 mm 3 mps 731 mmHg 78%
    21:00 +11°C° 0 mm 3 mps 732 mmHg 78%
    22:00 +10°C° 0 mm 2 mps 732 mmHg 78%
    23:00 +8°C° 0 mm 2 mps 732 mmHg 78%

    Day after tomorrow, 24 May, Friday

    Time Temperature Precipitation Wind Pressure Humidity
    00:00 +8°C° 0 mm 2 mps 733 mmHg 78%
    01:00 +8°C° 0 mm 2 mps 733 mmHg 78%
    02:00 +7°C° 0 mm 2 mps 733 mmHg 78%
    03:00 +8°C° 0 mm 2 mps 733 mmHg 77%
    04:00 +8°C° 0 mm 2 mps 734 mmHg 75%
    05:00 +9°C° 0 mm 2 mps 734 mmHg 73%
    06:00 +10°C° 0 mm 3 mps 734 mmHg 70%
    07:00 +11°C° 0 mm 3 mps 734 mmHg 67%
    08:00 +12°C° 0 mm 3 mps 734 mmHg 64%
    09:00 +14°C° 0 mm 3 mps 734 mmHg 59%
    10:00 +17°C° 0 mm 3 mps 735 mmHg 55%
    11:00 +18°C° 0 mm 3 mps 735 mmHg 50%
    12:00 +19°C° 0 mm 3 mps 734 mmHg 50%
    13:00 +19°C° 0 mm 3 mps 734 mmHg 50%
    14:00 +20°C° 0 mm 3 mps 734 mmHg 50%
    15:00 +20°C° 0 mm 3 mps 734 mmHg 51%
    16:00 +20°C° 0 mm 3 mps 734 mmHg 52%
    17:00 +20°C° 0 mm 3 mps 733 mmHg 54%
    18:00 +18°C° 0 mm 3 mps 733 mmHg 60%
    19:00 +16°C° 0 mm 3 mps 733 mmHg 66%
    20:00 +14°C° 0 mm 3 mps 733 mmHg 73%
    21:00 +13°C° 0 mm 3 mps 733 mmHg 74%
    22:00 +13°C° 0 mm 3 mps 733 mmHg 75%
    23:00 +12°C° 0 mm 3 mps 733 mmHg 76%

    25 May, Saturday

    Time Temperature Precipitation Wind Pressure Humidity
    00:00 +12°C° 0.3 mm 3 mps 732 mmHg 80%
    01:00 +12°C° 0.3 mm 3 mps 732 mmHg 84%
    02:00 +12°C° 0.3 mm 3 mps 732 mmHg 87%
    03:00 +12°C° 0.5 mm 3 mps 731 mmHg 89%
    04:00 +12°C° 0.5 mm 3 mps 731 mmHg 91%
    05:00 +12°C° 0.5 mm 3 mps 731 mmHg 93%
    06:00 +12°C° 0.5 mm 3 mps 730 mmHg 93%
    07:00 +12°C° 0.5 mm 3 mps 730 mmHg 93%
    08:00 +13°C° 0.5 mm 4 mps 730 mmHg 93%
    09:00 +14°C° 0.2 mm 4 mps 730 mmHg 91%
    10:00 +15°C° 0.2 mm 4 mps 729 mmHg 89%
    11:00 +17°C° 0.2 mm 4 mps 729 mmHg 87%
    12:00 +17°C° 0.8 mm 4 mps 729 mmHg 88%
    13:00 +17°C° 0.8 mm 4 mps 728 mmHg 89%
    14:00 +17°C° 0.8 mm 4 mps 728 mmHg 90%
    15:00 +17°C° 1.2 mm 3 mps 728 mmHg 91%
    16:00 +16°C° 1.2 mm 3 mps 727 mmHg 92%
    17:00 +16°C° 1.2 mm 2 mps 727 mmHg 94%
    18:00 +15°C° 0.5 mm 2 mps 727 mmHg 95%
    19:00 +15°C° 0.5 mm 2 mps 727 mmHg 96%
    20:00 +14°C° 0.5 mm 2 mps 727 mmHg 97%
    21:00 +13°C° 0 mm 2 mps 727 mmHg 97%
    22:00 +12°C° 0 mm 2 mps 727 mmHg 97%
    23:00 +10°C° 0 mm 2 mps 727 mmHg 97%

    26 May, Sunday

    Time Temperature Precipitation Wind Pressure Humidity
    00:00 +10°C° 0 mm 2 mps 727 mmHg 96%
    01:00 +9°C° 0 mm 2 mps 727 mmHg 96%
    02:00 +9°C° 0 mm 2 mps 727 mmHg 96%
    03:00 +9°C° 0 mm 2 mps 727 mmHg 96%
    04:00 +9°C° 0 mm 2 mps 727 mmHg 95%
    05:00 +10°C° 0 mm 2 mps 727 mmHg 94%
    06:00 +12°C° 0 mm 2 mps 727 mmHg 89%
    07:00 +13°C° 0 mm 2 mps 727 mmHg 83%
    08:00 +14°C° 0 mm 2 mps 727 mmHg 78%
    09:00 +16°C° 0 mm 3 mps 727 mmHg 70%
    10:00 +17°C° 0 mm 3 mps 727 mmHg 62%
    11:00 +18°C° 0 mm 4 mps 727 mmHg 53%
    12:00 +18°C° 0 mm 4 mps 726 mmHg 52%
    13:00 +18°C° 0 mm 4 mps 726 mmHg 51%
    14:00 +18°C° 0 mm 4 mps 726 mmHg 49%
    15:00 +18°C° 0 mm 3 mps 726 mmHg 50%
    16:00 +18°C° 0 mm 3 mps 726 mmHg 51%
    17:00 +17°C° 0 mm 3 mps 725 mmHg 52%
    18:00 +16°C° 0 mm 2 mps 725 mmHg 61%
    19:00 +14°C° 0 mm 2 mps 725 mmHg 71%
    20:00 +12°C° 0 mm 2 mps 725 mmHg 80%
    21:00 +10°C° 0.1 mm 2 mps 724 mmHg 84%
    22:00 +10°C° 0.1 mm 2 mps 724 mmHg 88%
    23:00 +9°C° 0.1 mm 2 mps 724 mmHg 92%

    27 May, Monday

    Time Temperature Precipitation Wind Pressure Humidity
    00:00 +9°C° 0.2 mm 2 mps 724 mmHg 93%
    01:00 +9°C° 0.2 mm 2 mps 724 mmHg 94%
    02:00 +9°C° 0.2 mm 3 mps 723 mmHg 95%
    03:00 +8°C° 0.9 mm 3 mps 723 mmHg 95%
    04:00 +8°C° 0.9 mm 3 mps 723 mmHg 94%
    05:00 +6°C° 0.9 mm 4 mps 723 mmHg 94%
    06:00 +7°C° 0.2 mm 4 mps 723 mmHg 91%
    07:00 +7°C° 0.2 mm 4 mps 724 mmHg 89%
    08:00 +7°C° 0.2 mm 4 mps 724 mmHg 86%
    09:00 +8°C° 0.2 mm 5 mps 724 mmHg 81%
    10:00 +9°C° 0.2 mm 5 mps 724 mmHg 75%
    11:00 +10°C° 0.2 mm 6 mps 725 mmHg 69%
    12:00 +10°C° 0.2 mm 6 mps 725 mmHg 69%
    13:00 +10°C° 0.2 mm 5 mps 725 mmHg 68%
    14:00 +10°C° 0.2 mm 5 mps 725 mmHg 67%
    15:00 +10°C° 0.2 mm 5 mps 726 mmHg 69%
    16:00 +10°C° 0.2 mm 5 mps 726 mmHg 71%
    17:00 +10°C° 0.2 mm 5 mps 727 mmHg 73%
    18:00 +10°C° 0 mm 4 mps 727 mmHg 77%
    19:00 +8°C° 0 mm 4 mps 728 mmHg 82%
    20:00 +9°C° 0 mm 3 mps 728 mmHg 87%
    21:00 +8°C° 0 mm 3 mps 728 mmHg 89%
    22:00 +8°C° 0 mm 3 mps 729 mmHg 92%
    23:00 +7°C° 0 mm 3 mps 729 mmHg 94%
    Show more